User: anonymous   Login
Location: Theydon Bois
(51.6750°N, 0.1050°E)
Time: 06:55:15
(UTC+01:00)
Language:

USA 234 - Orbit

View from above orbital plane
View from above orbital plane
View from above satellite
View from above satellite

Ground track
Ground track

The orbit data is extracted from the following two-line orbital elements,

1 38109U 12014A   17288.88896948 0.00000000  00000-0  00000-0 0    08
2 38109 122.9976   9.7999 0004000 303.9015  56.0985 13.41409339    07
Epoch (UTC): 15 October 2017 21:20:06
Eccentricity: 0.0004000
inclination: 122.9976°
perigee height: 1101 km
apogee height: 1107 km
right ascension of ascending node: 9.7999°
argument of perigee: 303.9015°
revolutions per day: 13.41409339
mean anomaly at epoch: 56.0985°
orbit number at epoch: 0

The dashed part of the orbit path shows where the satellite is in the earth's shadow,  

DLR